Terminal Aerodrome Forecast
Issued by NWS Jackson, KY

Home | Current Version | Previous Version | Text Only | Print | Product List | Glossary On
Versions: 1 2 3 4 5 6 7 8 9 10 11 12
000
FTUS43 KJKL 211100
TAFJKL
TAF
KJKL 211136Z 2112/2212 VRB03KT P6SM SCT250
     FM211900 25006KT P6SM SCT050 BKN100
     FM220200 26008KT P6SM VCSH SCT030 BKN050
     FM221000 27010KT 4SM -SHRA BR VCTS BKN030CB OVC050=

USA.gov is the U.S. government's official web portal to all federal, state and local government web resources and services.